This is the latest recevied weather packets stored in our database for station/object W4BOD. If no packets are shown the sender has not sent any weather packets the latest 10 day(s).
| Time | Temp. | Humidity | Pressure | Rain* | Wind** | Luminosity | Snow |
|---|---|---|---|---|---|---|---|
| 1777746717 | 18.89° C | 43% | 1016.5 hPa | 0 mm | - | 248 W/m² | - |
| 1777746412 | 18.89° C | 43% | 1016.4 hPa | 0 mm | - | 316 W/m² | - |
| 1777746108 | 18.89° C | 41% | 1016.3 hPa | 0 mm | - | 1049 W/m² | - |
| 1777745806 | 19.44° C | 40% | 1016.5 hPa | 0 mm | - | 1074 W/m² | - |
| 1777745505 | 18.89° C | 40% | 1016.6 hPa | 0 mm | - | 964 W/m² | - |
| 1777745201 | 18.89° C | 42% | 1016.6 hPa | 0 mm | - | 1026 W/m² | - |
| 1777744899 | 19.44° C | 41% | 1016.5 hPa | 0 mm | - | 667 W/m² | - |
| 1777744598 | 18.89° C | 43% | 1016.5 hPa | 0 mm | - | 1137 W/m² | - |
| 1777744293 | 18.89° C | 44% | 1016.9 hPa | 0 mm | - | 1090 W/m² | - |
| 1777743991 | 19.44° C | 44% | 1016.7 hPa | 0 mm | - | 302 W/m² | - |
| 1777743687 | 19.44° C | 41% | 1016.9 hPa | 0 mm | - | 322 W/m² | - |
| 1777743384 | 18.89° C | 44% | 1016.9 hPa | 0 mm | - | 1075 W/m² | - |
| 1777743082 | 18.89° C | 42% | 1016.8 hPa | 0 mm | - | 886 W/m² | - |
| 1777742779 | 18.33° C | 44% | 1016.9 hPa | 0 mm | - | 304 W/m² | - |
| 1777742476 | 18.33° C | 43% | 1016.9 hPa | 0 mm | - | 1136 W/m² | - |
| 1777742171 | 18.89° C | 44% | 1017 hPa | 0 mm | - | 1049 W/m² | - |
| 1777741869 | 18.33° C | 44% | 1016.9 hPa | 0 mm | - | 259 W/m² | - |
| 1777741565 | 18.33° C | 45% | 1017.2 hPa | 0 mm | - | 880 W/m² | - |
| 1777741263 | 18.89° C | 44% | 1017.1 hPa | 0 mm | - | 934 W/m² | - |
| 1777740959 | 18.89° C | 44% | 1017.1 hPa | 0 mm | - | 1017 W/m² | - |
| 1777740656 | 18.89° C | 42% | 1017.3 hPa | 0 mm | - | 603 W/m² | - |
| 1777740352 | 18.33° C | 45% | 1017.1 hPa | 0 mm | - | 931 W/m² | - |
| 1777740049 | 17.78° C | 44% | 1017.2 hPa | 0 mm | - | 931 W/m² | - |
| 1777739745 | 18.89° C | 43% | 1017.3 hPa | 0 mm | - | 926 W/m² | - |
| 1777739442 | 18.33° C | 45% | 1017.3 hPa | 0 mm | - | 930 W/m² | - |
* Rain latest hour (hover to see other rain measurements)
** Current wind speed in m/s (hover to see current wind gust speed)